Tracking 19212 objects as of 17-Jul-2018
HD Live streaming from Space Station
objects crossing your sky now

COSMOS 509

Track COSMOS 509 now!
10-day predictions
COSMOS 509 is classified as:


NORAD ID: 6122
Int'l Code: 1972-057F
Perigee: 1,480.3 km
Apogee: 1,505.3 km
Inclination: 74.0 °
Period: 115.7 minutes
Semi major axis: 7863 km
RCS: 0.7159 m2 (medium)
Launch date: July 20, 1972
Source: Commonwealth of Independent States (former USSR) (CIS)
Launch site: PLESETSK MISSILE AND SPACE COMPLEX (PKMTR)
aabbcc
Your satellite tracking list
Your tracking list is empty




NASA's NSSDC Master Catalog

Two Line Element Set (TLE):
1 06122U 72057F   18197.83846525 -.00000014  00000-0  11668-4 0  9991
2 06122  74.0278  69.8075 0015939 323.1314 112.9240 12.44954226 90254
Source of the keplerian elements: AFSPC